STARLINK-11411, 62018

Orbit data source: Space-Track

STARLINK-11411, 62018 is a payload satellite owned by SpaceX/Seattle (US) in LEO that was launched on Mon, 18 Nov 2024 UTC via an FALCON 9 launch vehicle from the Air Force Western Test Range (AFWTR). Payload-class satellites include a variety of spacecraft equipped with specific instruments for various scientific and technological missions. These include communications satellites like Starlink; space stations such as the ISS; scientific satellites like the Hubble; Earth observation satellites from companies like Planet Labs, Umbra, and HawkEye 360; GPS; miniature CubeSats for education and research; and military/defense satellites.

Loading next visibility...
Identifier
62018, 2024-213L
Orbit
LEO
Last TLE update
10 hours ago
Origin
Manufacturer
SpaceX/Seattle
Mission
Operational Commercial Communications
Bus & Motor
STARLINK V2M, Unknown motor
Mass
730 kg wet, ~700 kg dry
Launch date (UTC)
2024-11-18 (8 months ago)
Launch vehicle
FALCON 9
Launch site
Air Force Western Test Range (AFWTR)
Object type
Payload
Rocket body
Debris
Shape & HBR
Box + 2 Pan, 29 m
Radar Cross Section
36.964 m², Large (>1 m²)

Expand to show TLE details & history

TLE from 10 hours ago
0 STARLINK-11411
1 62018U 24213L   25191.60903035  .00124809  00000-0  10181-2 0  9990
2 62018  53.1574 154.6400 0000532 143.4807 216.6247 15.69745604 36892
Epoch: 2025-07-10T14:37Z
TLE epoch observation values (Epoch: 2025-07-10T14:37:00.222Z)
Latitude
-0.00003°
Longitude
6.6162°
Altitude
360.827 km
Speed
7.694 km/s
True Right ascension
10h 18m 33s
True Declination
0° 00' 00"
Sunlit
Object was in daylight at epoch
Visualization orbit readout
Latitude
-3.04179°
Longitude
-173.15887°
Altitude
360.42 km
Speed
7.694 km/s
Apparent Right ascension
23h 22m 28s
Apparent Declination
-21° 52' 48"
Sunlit
Object is in full shadow
Visualization observer readout
Local Sidereal Time
12:50:04
Azimuth
52.389° ENE
Elevation
-64.093°
Doppler factor
1
Orbital elements
Apogee altitude
360.244 km
Perigee altitude
359.528 km
Semi-major axis
6,738.023 km
Eccentricity
0.00005
Inclination
53.1574°
RAAN
154.64°
Arg. of periapsis
143.4807°
True anomaly
Unknown
Mean anomaly
216.6247°
Eccentric anomaly
Unknown
Mean motion
3.92414 °/min
Orbital period
91.74 mins
BSTAR
0.0010181
Loading maneuver chart data...
Loading SW <> Apogee altitude chart data...
Loading historical data...
Loading historical data...
Loading historical data...
Loading historical data...
Loading historical data...
Loading historical data...
Loading historical data...

STARLINK-11411 Visibility forecast

Observer location: undefined°, undefined°

Span
Click to sort rows by Start time (UTC) header in descending order
Start Az.
Max El. time (UTC)
Max El. Az.
Max El.
End time (UTC)
End Az.
4 mins2025-07-11 01:32:49.361Z281.513° WNW2025-07-11 01:34:49.361Z326.335° NNW19.286°2025-07-11 01:36:49.361Z16.537° NNE
4 mins2025-07-12 00:26:49.361Z260.303° W2025-07-12 00:27:49.361Z296.442° NW35.405°2025-07-12 00:30:49.361Z39.312° NE
|